BUGSAT-1 (TITA)

Last updated on July 6, 2021, 3:44 p.m. UTC

1 40014U 14033E   21186.95322950  .00000244  00000-0  27411-4 0  9992
2 40014  98.1109 167.1375 0032687 102.9496 257.5377 14.95764430384336
UTC
Height (km)
Latitude
Longitude
Inclination
Orbital Period
UTC large
Height (km)
Speed (km/s)
/
Latitude / Longitude
Inclination (degrees)
Orbital Period (minutes)
Azimuth
Elevation
Range (km)
Doppler Factor
iOS Compass Heading
iOS Angle